Flag for Belarus Weather past 2 weeks in Minsk, Belarus

Now
63 °F

Clear.


Feels Like: 63 °F
Forecast: 47 / 71 °F
Wind: 6 mph from East

Location: Loshitsa / Minsk International 1


UV Index: 0 (Low)

Visibility: 10 mi


Pressure: 30.01 "Hg

Humidity: 39%

Dew point: 37 °F

Location of MinskLocation

Historic Weather in Minsk

°F

Minsk temperature yesterday

Maximum temperature yesterday: 68 °F (at 3:00 PM)
Minimum temperature yesterday: 48 °F (at 7:00 AM)
Average temperature yesterday: 62 °F

Past Weeks' High & Low Weather Summary

 TemperatureHumidityPressure
High70 °F (Apr 20, 2:00 PM)100% (Apr 9, 8:00 AM)30.30 "Hg (Apr 9, 8:00 AM)
Low32 °F (Apr 6, 7:00 AM)19% (Apr 6, 3:00 PM)29.53 "Hg (Apr 15, 7:00 AM)
Average49 °F64%29.99 "Hg
* Reported Apr 6 7:00 AM — Apr 20 10:00 PM, Minsk, Weather by CustomWeather, © 2014

Note: Actual official high and low records may vary slightly from our data, if they occured in-between our weather recording intervals... More about our weather records

Advertising

Historic Weather Conditions — Data for Previous 24 hours

 ConditionsComfort  
Time TempWeatherWind HumidityBarometerVisibility
10:00 PM
Apr 20
63 °FClear.6 mph39%30.01 "Hg10 mi
9:30 PM64 °FClear.8 mph37%30.01 "Hg10 mi
9:00 PM64 °FSunny.8 mph37%30.01 "Hg10 mi
8:30 PM66 °FSunny.10 mph32%30.01 "Hg10 mi
8:00 PM66 °FSunny.10 mph32%30.01 "Hg10 mi
7:30 PM68 °FSunny.10 mph33%30.01 "Hg10 mi
7:00 PM68 °FSunny.10 mph33%30.01 "Hg10 mi
6:30 PM68 °FSunny.13 mph33%30.01 "Hg10 mi
6:00 PM68 °FPassing clouds.13 mph33%30.01 "HgN/A
5:30 PM70 °FPassing clouds.13 mph29%30.01 "HgN/A
5:00 PM70 °FPassing clouds.13 mph29%30.04 "HgN/A
4:30 PM70 °FScattered clouds.13 mph31%30.04 "HgN/A
4:00 PM70 °FScattered clouds.13 mph31%30.04 "HgN/A
3:30 PM68 °FPartly sunny.15 mph30%30.07 "HgN/A
3:00 PM68 °FPartly sunny.13 mph30%30.07 "HgN/A
2:30 PM70 °FPartly sunny.17 mph31%30.07 "HgN/A
2:00 PM70 °FPartly sunny.17 mph31%30.09 "HgN/A
1:30 PM68 °FScattered clouds.17 mph33%30.09 "HgN/A
1:00 PM68 °FScattered clouds.13 mph35%30.09 "HgN/A
12:30 PM68 °FScattered clouds.13 mph35%30.09 "HgN/A
12:00 PM68 °FPassing clouds.13 mph35%30.09 "HgN/A
11:30 AM64 °FSunny.10 mph49%30.09 "Hg10 mi
11:00 AM64 °FSunny.10 mph49%30.09 "Hg10 mi
10:30 AM61 °FSunny.6 mph52%30.09 "Hg10 mi
10:00 AM61 °FSunny.8 mph52%30.09 "Hg10 mi
9:30 AM57 °FSunny.8 mph51%30.12 "Hg10 mi
9:00 AM57 °FSunny.8 mph51%30.12 "Hg10 mi
8:30 AM54 °FSunny.3 mph51%30.12 "Hg10 mi
8:00 AM54 °FSunny.3 mph51%30.12 "Hg10 mi
7:30 AM52 °FSunny.3 mph62%30.12 "Hg10 mi
7:00 AM52 °FSunny.3 mph62%30.12 "Hg10 mi
Weather by CustomWeather, © 2014

See weather overview